Weather History for KPOF - December, 2012

Change the Weather History Date:

Monday, December 24, 2012

  Actual Average (KCGI) Record (KCGI)
Temperature  
Mean Temperature 42 °F 34 °F  
Max Temperature 53 °F 43 °F 65 °F (1982)
Min Temperature 30 °F 25 °F -10 °F (1963)
Degree Days  
Heating Degree Days 24 31  
Month to date heating degree days 680  
Since 1 July heating degree days 1531  
Cooling Degree Days 0 0  
Month to date cooling degree days 0  
Year to date cooling degree days 1453  
Moisture  
Dew Point 38 °F    
Average Humidity 78    
Maximum Humidity 100    
Minimum Humidity 40    
Precipitation  
Precipitation 0.00 in 0.13 in 3.92 in (1982)
Month to date precipitation 3.38  
Year to date precipitation 45.94  
Sea Level Pressure  
Sea Level Pressure 29.89 in    
Wind  
Wind Speed 4 mph (North)    
Max Wind Speed 15 mph    
Max Gust Speed 21 mph    
Visibility 5 miles    
Events Fog    
T = Trace of Precipitation, MM = Missing Value Source: NWS Daily Summary

Daily Weather History Graph

Daily Weather History Graph

Search for Another Location

Airport or City:

Trip Planner

Search our weather history database for the weather conditions in past years. The results will help you decide how hot, cold, wet, or windy it might be!

Date:

Astronomy

Dec. 24, 2012 Rise Set
Actual Time 7:11 AM CST 4:50 PM CST
Civil Twilight 6:42 AM CST 5:19 PM CST
Nautical Twilight 6:10 AM CST 5:52 PM CST
Astronomical Twilight 5:38 AM CST 6:23 PM CST
Moon 2:16 PM CST (12/24) 3:52 AM CST (12/24)
Length of Visible Light 10h 36m
Length of Day
9h 38m
Waxing Gibbous, 88% of the Moon is Illuminated
Dec 24
Waxing Gibbous
Dec 28
Full
Jan 4
Last Quarter
Jan 11
New
Jan 18
First Quarter

Hourly Weather History & Observations

Time (CST) Temp. Windchill Dew Point Humidity Pressure Visibility Wind Dir Wind Speed Gust Speed Precip Events Conditions
12:10 AM 46.4 °F 45.2 °F 44.6 °F 93% 29.82 in 2.5 mi North 3.5 mph - N/A   Overcast
12:20 AM 46.4 °F - 44.6 °F 93% 29.82 in 3.0 mi Calm Calm - N/A   Overcast
12:30 AM 48.2 °F - 46.4 °F 93% 29.81 in 4.0 mi Calm Calm - N/A   Overcast
12:53 AM 48.0 °F - 46.0 °F 93% 29.81 in 4.0 mi Calm Calm - N/A   Overcast
1:36 AM 46.4 °F - 46.4 °F 100% 29.79 in 2.0 mi Calm Calm - N/A   Overcast
1:44 AM 48.2 °F - 46.4 °F 93% 29.79 in 1.8 mi Calm Calm - N/A   Overcast
1:53 AM 48.0 °F - 46.0 °F 93% 29.80 in 1.2 mi Calm Calm - N/A   Overcast
2:53 AM 48.9 °F - 48.0 °F 97% 29.79 in 1.2 mi NNE 6.9 mph - N/A   Overcast
3:37 AM 48.2 °F - 46.4 °F 93% 29.78 in 0.8 mi ENE 5.8 mph - N/A   Mist
3:53 AM 48.9 °F - 46.9 °F 93% 29.78 in 0.5 mi Calm Calm - N/A Fog Fog
4:19 AM 48.2 °F - 46.4 °F 93% 29.77 in 0.2 mi Calm Calm - N/A Fog Fog
4:53 AM 48.0 °F - 46.9 °F 96% 29.79 in 0.2 mi Calm Calm - N/A Fog Fog
5:53 AM 48.0 °F - 46.9 °F 96% 29.80 in 0.2 mi WNW 3.5 mph - N/A Fog Fog
6:08 AM 48.2 °F - 46.4 °F 93% 29.81 in 0.5 mi WNW 4.6 mph - N/A Fog Fog
6:29 AM 48.2 °F - 46.4 °F 93% 29.82 in 1.0 mi NW 3.5 mph - N/A   Overcast
6:49 AM 48.2 °F - 46.4 °F 93% 29.83 in 3.0 mi NW 5.8 mph - N/A   Overcast
6:53 AM 48.9 °F - 46.9 °F 93% 29.84 in 6.0 mi WNW 5.8 mph - N/A   Overcast
7:50 AM 48.2 °F - 46.4 °F 93% 29.87 in 8.0 mi WNW 9.2 mph - N/A   Overcast
7:53 AM 48.0 °F - 46.0 °F 93% 29.88 in 8.0 mi WNW 9.2 mph - N/A   Overcast
8:53 AM 46.0 °F 39.6 °F 37.9 °F 73% 29.91 in 10.0 mi NNW 15.0 mph 20.7 mph N/A   Scattered Clouds
9:53 AM 46.0 °F 41.4 °F 34.0 °F 63% 29.94 in 10.0 mi NNW 9.2 mph - N/A   Clear
10:53 AM 48.9 °F - 34.0 °F 56% 29.94 in 10.0 mi North - - N/A   Unknown
11:53 AM 50.0 °F - 32.0 °F 50% 29.91 in 10.0 mi Variable 4.6 mph - N/A   Clear
12:53 PM 53.1 °F - 28.9 °F 40% 29.89 in 10.0 mi North 5.8 mph - N/A   Clear
1:53 PM 52.0 °F - 28.0 °F 40% 29.90 in 10.0 mi NNW 8.1 mph - N/A   Clear
2:53 PM 52.0 °F - 28.0 °F 40% 29.90 in 10.0 mi North 5.8 mph - N/A   Clear
3:53 PM 52.0 °F - 28.0 °F 40% 29.92 in 10.0 mi NNW 4.6 mph - N/A   Clear
4:53 PM 45.0 °F 41.2 °F 28.9 °F 53% 29.95 in 10.0 mi NNW 6.9 mph - N/A   Clear
5:53 PM 42.1 °F 38.4 °F 28.0 °F 58% 29.98 in 10.0 mi NNW 5.8 mph - N/A   Clear
6:53 PM 39.9 °F 35.1 °F 28.9 °F 65% 30.01 in 10.0 mi NNE 6.9 mph - N/A   Clear
7:53 PM 37.0 °F 31.6 °F 30.0 °F 76% 30.04 in 7.0 mi ENE 6.9 mph - N/A   Clear
8:53 PM 35.1 °F 27.9 °F 28.9 °F 78% 30.06 in 7.0 mi NE 9.2 mph - N/A   Clear
9:53 PM 33.1 °F 23.9 °F 27.0 °F 78% 30.07 in 6.0 mi NNE 12.7 mph - N/A   Haze
10:53 PM 30.0 °F 20.5 °F 23.0 °F 75% 30.09 in 6.0 mi NNE 11.5 mph - N/A   Haze
11:48 PM 30.2 °F 21.3 °F 23.0 °F 75% 30.08 in 6.0 mi NNE 10.4 mph - N/A   Haze
11:53 PM 30.0 °F 21.1 °F 23.0 °F 75% 30.10 in 6.0 mi NNE 10.4 mph - N/A   Haze